Weather in Larisovka

Russia / Belgorod Oblast     51°02′25″N   38°16′22″E
temp.,
°C
wind,
m/s
gust,
m/s
humid.,
%
clouds,
%
prec.,
mm/h
press.,
hPa
HPBL,
m
9 march, tue
tue900:00−4wnw238874 0.0 1010118
03:00−5wnw249067 0.0 1011165
06:00−5nw4592100 0.2 1011339
09:00−6nnw577199 0.5 1013532
12:00−5nnw565847 0.0 10151038
15:00−5nnw675873 0.0 10171199
18:00−6nnw676599 0.0 1019973
21:00−8nnw586899 0.0 1021809
10 march, wed
wed1000:00−9nnw576818 0.0 1022759
03:00−9nw477453 0.0 1024652
06:00−11nw58752 0.0 1025460
09:00−11nnw47681 0.0 1027460
12:00−8nnw46490 0.0 1027773
15:00−6nw444710 0.0 1027886
18:00−7nnw345694 0.0 1026760
21:00−8nne338097 0.1 1027365
11 march, thu
thu1100:00−9ene347999 0.1 1028433
03:00−10ene457699 0.1 1029408
06:00−12ene5786100 0.3 1029388
09:00−12ene5758100 0.4 1031405
12:00−10e564449 0.0 1031600
15:00−8e453424 0.0 1031866
18:00−9e45350 0.0 1031769
21:00−10e46400 0.0 1032603
12 march, fri
fri1200:00−11ese36460 0.0 1033507
03:00−11ese36540 0.0 1033398
06:00−12se25600 0.0 1034309
09:00−10se46490 0.0 1034433
12:00−7sse57360 0.0 1032698
15:00−4sse573430 0.0 10321026
18:00−5sse583892 0.0 1030915
21:00−5s6104296 0.0 1030865
13 march, sat
sat1300:00−6s7134362 0.0 1029790
03:00−6s8144182 0.0 1028684
06:00−6s81339100 0.0 1027637
09:00−5s81436100 0.0 1027703
12:00−3s91452100 0.0 1026816
15:00−1ssw81251100 0.0 1025960
18:00−1ssw6116099 0.0 1024866
21:00−1s6125299 0.0 1024665